Location: Eaton Estates
(41.3089°N, 82.0057°W)
Time: 09:51:54
(UTC+00:00)

Tiangong - Pass Details

Date: 11 December 2022
Orbit: 382 x 386 km, 41.5° (Epoch: 05 February)

Event Time Altitude Azimuth Distance (km) Brightness Sun altitude
Rises 23:52:10 0° 271° (W) 2,250 3.2 -20.5°
Reaches altitude 10° 23:55:09 10° 240° (WSW) 1,394 1.7 -21.1°
Maximum altitude 23:56:34 12° 213° (SSW) 1,256 1.0 -21.3°
Drops below altitude 10° 23:57:59 10° 187° (S) 1,391 0.9 -21.6°
Enters shadow 23:58:42 - 176° (S) 1,548 1.0 -21.7°
